Notices

Please take our survey and provide feedback: https://eccc.sondage-survey.ca/f/LanguageSelection.aspx?s=442ca660-fcf1-47c0-95a9-59707d6fd709

Please note that for the Engineering Climate Datasets, IDF dataset is available through this link.  Intensity-Duration-Frequency (IDF) Files: Includes the latest version of short-duration rainfall Intensity-Duration-Frequency (IDF) statistics in the form of tables and graphs with accompanying documentation for various locations across Canada.  Current IDF files can be accessed through our station finder application or downloaded for each province and territory across Canada.  In addition, historical versions of IDF files are also available for download.  Updates of IDF files are provided approximately every two years depending on the availability of data.   Thank you for your patience as we enhance our systems.

Hourly Data Report for April 25, 2017

TORONTO CITY
ONTARIO

43°40'00.000" N
79°24'00.000" W
112.50 m
6158355
71508
XTO

Download Data

Hourly Data (April 2017)
Hourly Data Report for April 25, 2017
TIME
LST
Temp Definition
°C
Dew Point Definition
°C
Rel Hum Definition
%
Precip. Amount Definition
mm

Wind Dir Definition
10's deg

Wind Spd Definition
km/h
Visibility Definition
km
Stn Press Definition
kPa
Hmdx Definition


Wind Chill Definition


Weather Definition


00:00 7.4 1.6 67 0.0 LegendMM LegendMM   100.45     LegendNANA
01:00 7.3 1.5 67 0.0 LegendMM LegendMM   100.38     LegendNANA
02:00 7.1 1.3 66 0.0 LegendMM LegendMM   100.30     LegendNANA
03:00 7.5 0.8 62 0.0 LegendMM LegendMM   100.24     LegendNANA
04:00 7.9 0.1 58 0.0 LegendMM LegendMM   100.22     LegendNANA
05:00 8.2 0.2 57 0.0 LegendMM LegendMM   100.25     LegendNANA
06:00 7.8 1.0 62 0.0 LegendMM LegendMM   100.28     LegendNANA
07:00 7.4 1.4 66 0.0 LegendMM LegendMM   100.38     LegendNANA
08:00 5.2 3.2 87 0.2 LegendMM LegendMM   100.35     LegendNANA
09:00 5.5 4.1 91 0.8 LegendMM LegendMM   100.33     LegendNANA
10:00 7.0 5.8 92 1.0 LegendMM LegendMM   100.30     LegendNANA
11:00 7.3 6.2 93 1.7 LegendMM LegendMM   100.27     LegendNANA
12:00 7.5 6.3 92 0.3 LegendMM LegendMM   100.19     LegendNANA
13:00 7.7 6.4 92 0.2 LegendMM LegendMM   100.08     LegendNANA
14:00 7.7 6.4 92 0.0 LegendMM LegendMM   100.10     LegendNANA
15:00 8.0 6.4 89 0.0 LegendMM LegendMM   100.02     LegendNANA
16:00 8.4 6.5 88 0.0 LegendMM LegendMM   99.98     LegendNANA
17:00 9.3 6.9 85 0.0 LegendMM LegendMM   99.95     LegendNANA
18:00 10.1 7.2 82 0.0 LegendMM LegendMM   99.86     LegendNANA
19:00 10.5 7.3 81 0.0 LegendMM LegendMM   99.82     LegendNANA
20:00 10.8 7.5 80 0.0 LegendMM LegendMM   99.80     LegendNANA
21:00 10.6 7.5 81 0.0 LegendMM LegendMM   99.80     LegendNANA
22:00 10.3 7.2 81 0.0 LegendMM LegendMM   99.75     LegendNANA
23:00 10.4 7.5 82 0.0 LegendMM LegendMM   99.71     LegendNANA

Notes on Data Quality.

Legend

  • E = Estimated
  • M = Missing
  • NA = Not Available*
  • [empty] = Indicates an unobserved value
Date modified: